679  
ASUS42 KILM 281713  
RWRILM  
RWRILM  
REGIONAL HOURLY WEATHER ROUNDUP  
NATIONAL WEATHER SERVICE WILMINGTON NC  
100 PM EDT FRI APR 28 2017  
 
NOTE: "FAIR" INDICATES FEW OR NO CLOUDS BELOW 12,000 FEET WITH NO  
SIGNIFICANT WEATHER AND/OR S TO VISIBILITY
.  
   
..............WFO WILMINGTON COUNTY WARNING AREA............
 
 
   
.....COASTAL NC AND SC COUNTIES...
 
 
 
CITY SKY/WX TMP DP RH WIND PRES REMARKS
 
WILMINGTON CLOUDY 83 73 72 SW13G22 30.10F  
N MYRTLE BEACH MOSUNNY 79 74 84 S14 30.10F  
MYRTLE BEACH NOT AVBL  
   
.....INLAND NC AND SC COUNTIES....
 
 
 
CITY SKY/WX TMP DP RH WIND PRES REMARKS
 
LUMBERTON MOSUNNY 85 72 65 S8 30.07S HX 91  
ELIZABETHTOWN MOSUNNY 85 69 58 S8G16 30.08F  
WHITEVILLE MOSUNNY 86 71 59 S8 30.08F HX 91  
FLORENCE SUNNY 86 70 58 S13 30.08S HX 90  
DARLINGTON MOSUNNY 85 71 63 S13 30.08F HX 90  
KINGSTREE FAIR 88 64 45 S7 30.08F  
HARTSVILLE FAIR 82 68 61 S7 30.07F  
BENNETTSVILLE FAIR 86 72 62 S13 30.06F HX 92  
CONWAY FAIR 84 70 61 S9 30.09S  
GEORGETOWN CLOUDY 81 73 78 SW12 30.11F  
MARION FAIR 86 64 48 S10G18 30.08S  
   
...................REST OF NORTH CAROLINA...................
 
 
   
........EASTERN NC......
 
 
 
CITY SKY/WX TMP DP RH WIND PRES REMARKS
 
CAPE HATTERAS PTSUNNY 79 72 79 SW10 30.13S HAZE  
JACKSONVILLE PTSUNNY 85 73 67 S14 30.09F HX 91  
MOREHEAD CITY CLOUDY 78 75 90 S13 30.13R  
KENANSVILLE MOSUNNY 84 70 61 S7 30.09S  
NEW BERN PTSUNNY 84 73 69 S9 30.10F HX 90  
ELIZABETH CITY MOSUNNY 84 74 71 SW9 30.07S HX 91  
   
........CENTRAL NC......
 
 
 
CITY SKY/WX TMP DP RH WIND PRES REMARKS
 
RALEIGH DURHAM PTSUNNY 82 69 64 SW12 30.08S  
ROCKY MOUNT N/A N/A N/A N/A MISG 30.07F  
ROANOKE RAPIDS NOT AVBL  
FAYETTEVILLE MOSUNNY 86 71 60 SW8 30.07S HX 91  
HOFFMAN MOSUNNY 84 69 60 SW9 30.06F  
   
........WESTERN NC......
 
 
 
CITY SKY/WX TMP DP RH WIND PRES REMARKS
 
CHARLOTTE PTSUNNY 80 66 62 S12 30.09S  
GREENSBORO MOSUNNY 79 67 66 VRB7 30.08S  
HICKORY NOT AVBL  
BOONE NOT AVBL  
ASHEVILLE NOT AVBL  
   
....................REST OF SOUTH CAROLINA..................
 
 
   
........EASTERN SC......
 
 
 
CITY SKY/WX TMP DP RH WIND PRES REMARKS
 
CHARLESTON MOSUNNY 86 70 58 S15 30.09F HX 90  
BEAUFORT MCAS MOSUNNY 86 71 60 S7 30.09S HX 91  
HILTON HEAD PTSUNNY 79 75 89 S9 30.11S  
   
........CENTRAL SC......
 
 
 
CITY SKY/WX TMP DP RH WIND PRES REMARKS
 
COLUMBIA MOSUNNY 86 67 52 S12G18 30.05F  
ORANGEBURG SUNNY 87 68 52 S10 30.08S HX 90  
SUMTER SHAW SUNNY 87 67 52 S10 30.05F HX 90  
   
........WESTERN SC......
 
 
 
CITY SKY/WX TMP DP RH WIND PRES REMARKS
 
GREENVILLE NOT AVBL  
ROCK HILL CLOUDY 78 67 68 SW8 30.09F  
ANDERSON PTSUNNY 77 67 71 VRB7 30.09S  
CLEMSON NOT AVBL  
GREENWOOD PTSUNNY 80 66 62 S9 30.09F  
 
   
..................COASTAL AND OFFSHORE REPORTS...............
 
 
   
...............LOCAL PIERS AND NC RESERVE.............
 
 
 
STATION/POSITION TIME SKY/WX TEMP WIND PRES VSBY
 
AIR SEA DIR/SP/G  
(UTC) (F) (DEG/KT/KT) (MB) (MI)  
JOHNY MRCER PIER 1648 74 72 180/ 19/ 20 1018.4F  
NC RESRV MASNBRO 1545 79 240/ 9 1020.0  
OCEAN CREST PIER NOT AVBL  
SPRINGMAID PIER 1648 1018.9S  
 
   
...............COASTAL AND OFFSHORE BUOYS.............
 
 
 
STATION/POSITION TIME SKY/WX TEMP WIND PRES VSBY
 
AIR SEA DIR/SP/G  
(UTC) (F) (DEG/KT/KT) (MB) (MI)  
DIMNDSHOAL 41025 1650 78 76 210/ 17/ 19 1020.1R  
WVE H/P(F/S)= 6/ 8 SWL H/P/D(F/S/D)= 3/140/ 8  
 
CAPE LOOKOUT 1700 78 210/ 12/ 16 1019.9R  
ONSLOW BAY 41036 NOT AVBL  
ONSLOW BAY 41064 1608 74 220/ 10/ 12 1020.3R  
ONSLOW BAY 41159 1643 72 N/A  
WVE H/P(F/S)= 5/ 6  
 
MASNBO INL 41110 1659 71 N/A  
WVE H/P(F/S)= 4/ 6  
 
WILM HARBR 41108 1647 72 N/A  
WVE H/P(F/S)= 3/ 6  
 
27SE WRITB 41037 1608 74 72 190/ 10/ 14 1019.3R  
FRYING PAN 41013 1700 75 73 200/ 10/ 12 1020.4  
SUNST NRSH 41024 1608 73 71 210/ 6/ 10 1019.6R  
CAPRS NRSH 41029 1608 75 74 200/ 6/ 8 1019.6R  
EDISTO 41004 1650 76 74 180/ 12/ 14 1019.6S  
 
   
.........OFFSHORE BUOYS BEYOND 100 NM OFFSHORE........
 
   
....IN A TRIANGLE---HAT TO BERMUDA TO BAHAMAS TO HAT..
 
 
 
 
STATION/POSITION TIME SKY/WX TEMP WIND PRES VSBY
 
AIR SEA DIR/SP/G  
(UTC) (F) (DEG/KT/KT) (MB) (MI)  
150E HAT 41001 1700 73 72 200/ 12/ 16 1022.5  
W BERMUDA 41048 1700 73 72 CALM / 2 1026.0  
ATLANTIC S 41049 1650 73 73 80/ 10/ 12 1025.8S  
WVE H/P(F/S)= 4/ 8 SWL H/P/D(F/S/D)= 3/ 40/ 8  
 
E BAHAMAS 41046 1700 77 78 100/ 14/ 17 1021.5  
NE BAHAMAS 41047 1700 75 77 70/ 10/ 14 1023.5  
120E CANVRL41010 1700 78 79 160/ 12/ 14 1020.8  
 
END  
 
 
CLICK HERE TO GO TO PREVIOUS BULLETINS.

The Nexlab NC Page
The Nexlab SC Page Main Text Page